�N����,����,�g�[���i���ԁj���x,�g�[�����x,��g�[���i���ցj���x,����
 2003/04/01, 0:00,22.3,48,20.7,13
 2003/04/01, 0:15,22.1,48,20.6,13.1
 2003/04/01, 0:30,22,48,20.6,13.3
 2003/04/01, 0:45,21.9,49,20.5,13.4
 2003/04/01, 1:00,21.9,49,20.5,13.5
 2003/04/01, 1:15,21.8,49,20.5,13.6
 2003/04/01, 1:30,21.7,49,20.5,13.8
 2003/04/01, 1:45,21.7,49,20.4,13.9
 2003/04/01, 2:00,21.7,49,20.4,14
 2003/04/01, 2:15,21.6,49,20.4,14.1
 2003/04/01, 2:30,21.6,49,20.3,14.3
 2003/04/01, 2:45,21.6,49,20.3,14.4
 2003/04/01, 3:00,21.5,50,20.3,14.5
 2003/04/01, 3:15,21.5,50,20.3,14.6
 2003/04/01, 3:30,21.5,50,20.2,16.4
 2003/04/01, 3:45,21.5,50,20.2,16.5
 2003/04/01, 4:00,21.4,50,20.2,16.6
 2003/04/01, 4:15,21.4,50,20.2,16.6
 2003/04/01, 4:30,21.4,50,20.1,16.7
 2003/04/01, 4:45,21.4,51,20.1,16.8
 2003/04/01, 5:00,21.3,51,20.1,16.9
 2003/04/01, 5:15,21.3,50,20.1,16.9
 2003/04/01, 5:30,21.3,51,20.1,17
 2003/04/01, 5:45,21.3,50,20,17.1
 2003/04/01, 6:00,21.3,50,20,17.2
 2003/04/01, 6:15,22.7,51,20.3,13.2
 2003/04/01, 6:30,23.6,50,20.8,13
 2003/04/01, 6:45,23.8,50,20.9,13.1
 2003/04/01, 7:00,24.1,49,21.1,13.3
 2003/04/01, 7:15,25.3,48,21.5,13.4
 2003/04/01, 7:30,25.4,48,21.8,13.5
 2003/04/01, 7:45,25.4,49,22.2,13.7
 2003/04/01, 8:00,25,49,22.3,11.5
 2003/04/01, 8:15,24.3,50,22,11.7
 2003/04/01, 8:30,23.9,50,21.8,11.7
 2003/04/01, 8:45,23.6,50,21.7,11.9
 2003/04/01, 9:00,23.5,50,21.6,12
 2003/04/01, 9:15,23.2,51,21.5,13.2
 2003/04/01, 9:30,23,51,21.3,13.3
 2003/04/01, 9:45,23,51,21.3,13.9
 2003/04/01,10:00,22.8,52,21.2,13.9
 2003/04/01,10:15,22.7,52,21.1,14
 2003/04/01,10:30,22.6,52,21,14.2
 2003/04/01,10:45,22.5,56,20.9,14.3
 2003/04/01,11:00,22.3,52,20.8,13.4
 2003/04/01,11:15,22.2,50,20.7,13.5
 2003/04/01,11:30,22.1,50,20.4,13.8
 2003/04/01,11:45,22.7,49,21,13.9
 2003/04/01,12:00,22.9,51,21,14.4
 2003/04/01,12:15,23,52,21.1,14.4
 2003/04/01,12:30,23.2,53,21.2,14.5
 2003/04/01,12:45,23.2,53,21.3,14.6
 2003/04/01,13:00,23.4,53,21.4,14.8
 2003/04/01,13:15,23.6,53,21.5,14.4
 2003/04/01,13:30,23.5,51,21.4,14.3
 2003/04/01,13:45,23.4,49,21.4,14.4
 2003/04/01,14:00,23.4,47,21.4,14.5
 2003/04/01,14:15,23.2,47,21.3,14.3
 2003/04/01,14:30,23.3,46,21.3,14.4
 2003/04/01,14:45,23.2,46,21.3,14.5
 2003/04/01,15:00,23.2,46,21.3,14.3
 2003/04/01,15:15,23.2,47,21.5,14.4
 2003/04/01,15:30,22.9,47,21.6,14.5
 2003/04/01,15:45,22.9,47,21.3,14.6
 2003/04/01,16:00,22.6,48,21.2,14.7
 2003/04/01,16:15,22.5,48,21,14.8
 2003/04/01,16:30,22.3,48,20.9,14.9
 2003/04/01,16:45,22.2,48,20.9,15
 2003/04/01,17:00,22.1,48,20.8,15.1
 2003/04/01,17:15,22,48,20.7,15.2
 2003/04/01,17:30,21.9,48,20.9,16.3
 2003/04/01,17:45,22.1,50,20.9,13.5
 2003/04/01,18:00,23.2,50,21,13.7
 2003/04/01,18:15,23.6,50,21.2,13.8
 2003/04/01,18:30,24.1,50,21.4,13.9
 2003/04/01,18:45,24.4,50,21.6,14
 2003/04/01,19:00,24.6,48,21.8,14.1
 2003/04/01,19:15,24.8,45,22,14.3
 2003/04/01,19:30,24.9,44,22.1,14.4
 2003/04/01,19:45,24.9,45,21.9,14.5
 2003/04/01,20:00,25,44,21.9,14.6
 2003/04/01,20:15,25.2,45,22.1,14.7
 2003/04/01,20:30,25.5,46,22.3,14.8
 2003/04/01,20:45,25.3,47,22.4,14.8
 2003/04/01,21:00,25.2,47,22.5,14.9
 2003/04/01,21:15,25,47,22.5,15
 2003/04/01,21:30,24.9,48,22.6,15.1
 2003/04/01,21:45,24.9,49,22.6,15.2
 2003/04/01,22:00,24.8,49,22.7,15.4
 2003/04/01,22:15,24.9,49,22.7,15.5
 2003/04/01,22:30,24.8,50,22.7,15.4
 2003/04/01,22:45,24.7,50,22.7,15.5
 2003/04/01,23:00,24.7,51,22.7,15.6
 2003/04/01,23:15,24.7,51,22.8,14.2
 2003/04/01,23:30,24.6,51,22.7,13
 2003/04/01,23:45,24.3,51,22.6,13.1
 2003/04/02, 0:00,24,51,22.5,13.4
 2003/04/02, 0:15,23.8,50,22.3,13.5
 2003/04/02, 0:30,23.6,51,22.2,13.7
 2003/04/02, 0:45,23.4,51,22.1,13.8
 2003/04/02, 1:00,23.3,51,22,13.9
 2003/04/02, 1:15,23,52,21.9,14.1
 2003/04/02, 1:30,22.9,52,21.8,14.2
 2003/04/02, 1:45,22.8,52,21.7,14.3
 2003/04/02, 2:00,22.8,52,21.6,14.4
 2003/04/02, 2:15,22.7,52,21.5,14.6
 2003/04/02, 2:30,22.6,52,21.4,14.7
 2003/04/02, 2:45,22.6,53,21.4,14.8
 2003/04/02, 3:00,22.5,53,21.3,14.9
 2003/04/02, 3:15,22.4,53,21.2,15.1
 2003/04/02, 3:30,22.4,53,21.2,15.2
 2003/04/02, 3:45,22.4,52,21.1,15.3
 2003/04/02, 4:00,22.3,53,21.1,15.4
 2003/04/02, 4:15,22.3,53,21,15.6
 2003/04/02, 4:30,22.2,53,21,15.7
 2003/04/02, 4:45,22.1,53,20.9,15.8
 2003/04/02, 5:00,22.1,53,20.9,15.9
 2003/04/02, 5:15,22,53,20.8,16
 2003/04/02, 5:30,22,53,20.8,16.1
 2003/04/02, 5:45,22,53,20.8,16.2
 2003/04/02, 6:00,21.9,53,20.7,17.6
 2003/04/02, 6:15,21.9,53,20.7,17.6
 2003/04/02, 6:30,21.9,53,20.6,17.7
 2003/04/02, 6:45,21.8,53,20.6,17.7
 2003/04/02, 7:00,21.8,53,20.6,17.8
 2003/04/02, 7:15,21.9,53,20.5,13.3
 2003/04/02, 7:30,23.4,50,20.7,13.2
 2003/04/02, 7:45,23.9,49,21,13.3
 2003/04/02, 8:00,24.7,49,21.3,13.5
 2003/04/02, 8:15,25.2,47,21.5,13.6
 2003/04/02, 8:30,24.5,49,21.6,13.7
 2003/04/02, 8:45,23.9,49,21.4,13.9
 2003/04/02, 9:00,23.6,49,21.3,14
 2003/04/02, 9:15,23.4,49,21.3,14.1
 2003/04/02, 9:30,23.2,50,21.2,14.2
 2003/04/02, 9:45,23.1,50,21.1,14.4
 2003/04/02,10:00,23,49,21.1,14.5
 2003/04/02,10:15,22.9,49,21,16.4
 2003/04/02,10:30,22.8,50,21,16.4
 2003/04/02,10:45,22.8,50,20.9,14.2
 2003/04/02,11:00,22.8,50,21.1,14.3
 2003/04/02,11:15,22.8,50,21,14.5
 2003/04/02,11:30,22.7,50,20.9,14.7
 2003/04/02,11:45,22.6,50,20.9,14.8
 2003/04/02,12:00,22.6,50,20.9,14.9
 2003/04/02,12:15,22.6,50,21,15
 2003/04/02,12:30,22.6,50,20.9,15.2
 2003/04/02,12:45,22.6,50,20.8,15.3
 2003/04/02,13:00,22.6,50,20.8,15.4
 2003/04/02,13:15,22.6,50,20.8,15.5
 2003/04/02,13:30,22.7,53,20.8,15.6
 2003/04/02,13:45,22.6,51,20.8,15.8
 2003/04/02,14:00,22.5,50,20.6,15.9
 2003/04/02,14:15,22.4,50,20.5,17.2
 2003/04/02,14:30,22.4,50,20.4,16.5
 2003/04/02,14:45,22.4,51,20.5,16.6
 2003/04/02,15:00,22.4,52,20.5,16.7
 2003/04/02,15:15,22.4,53,20.5,16.8
 2003/04/02,15:30,22.4,53,20.5,17.1
 2003/04/02,15:45,22.3,54,20.5,15.4
 2003/04/02,16:00,22.3,54,20.5,15.5
 2003/04/02,16:15,22.2,54,20.5,14.6
 2003/04/02,16:30,22.2,55,20.5,14.9
 2003/04/02,16:45,22.2,55,20.4,13.1
 2003/04/02,17:00,22.9,55,20.6,13.2
 2003/04/02,17:15,22.6,55,20.6,13.1
 2003/04/02,17:30,22.4,54,20.5,13.1
 2003/04/02,17:45,22.2,54,20.5,13.2
 2003/04/02,18:00,22.1,55,20.4,14
 2003/04/02,18:15,23,55,20.7,14.1
 2003/04/02,18:30,23.4,55,21,14.2
 2003/04/02,18:45,23.6,54,20.9,14.9
 2003/04/02,19:00,23.5,54,20.9,14.9
 2003/04/02,19:15,23.6,53,20.9,14.3
 2003/04/02,19:30,23.6,53,20.9,14.4
 2003/04/02,19:45,23.6,52,20.9,14.5
 2003/04/02,20:00,23.6,51,20.9,14.6
 2003/04/02,20:15,23.7,53,21,14.7
 2003/04/02,20:30,24.5,52,21.3,14.8
 2003/04/02,20:45,24.3,51,21.4,12.1
 2003/04/02,21:00,24,52,21.2,12.8
 2003/04/02,21:15,24.1,52,21.5,12.4
 2003/04/02,21:30,24.2,52,21.6,12.5
 2003/04/02,21:45,24.2,53,21.7,13.3
 2003/04/02,22:00,24.1,53,21.8,13.6
 2003/04/02,22:15,24.2,53,21.9,13.7
 2003/04/02,22:30,24.3,53,21.9,14.6
 2003/04/02,22:45,24.2,53,22,13
 2003/04/02,23:00,24.2,53,22,13.2
 2003/04/02,23:15,24.2,53,22,13.3
 2003/04/02,23:30,24.2,52,22.1,13.6
 2003/04/02,23:45,24.2,52,22.1,13.7
 2003/04/03, 0:00,24.2,54,22.1,13.8
 2003/04/03, 0:15,24,54,22.1,13.9
 2003/04/03, 0:30,23.8,53,22,14.1
 2003/04/03, 0:45,23.6,52,21.9,14.2
 2003/04/03, 1:00,23.6,52,21.8,14.3
 2003/04/03, 1:15,23.4,51,21.8,14.4
 2003/04/03, 1:30,23.2,52,21.7,14.5
 2003/04/03, 1:45,23.7,52,21.7,16.1
 2003/04/03, 2:00,23.4,52,21.7,16
 2003/04/03, 2:15,23.2,52,21.6,16.1
 2003/04/03, 2:30,23,52,21.5,16.2
 2003/04/03, 2:45,22.9,52,21.4,16.3
 2003/04/03, 3:00,22.7,53,21.3,16.4
 2003/04/03, 3:15,22.6,53,21.3,17.2
 2003/04/03, 3:30,22.6,53,21.2,17.2
 2003/04/03, 3:45,22.5,53,21.1,17.3
 2003/04/03, 4:00,22.4,53,21.1,17.4
 2003/04/03, 4:15,22.4,53,21,17.4
 2003/04/03, 4:30,22.3,53,21,17.5
 2003/04/03, 4:45,22.3,54,20.9,17.5
 2003/04/03, 5:00,22.2,54,20.9,17.6
 2003/04/03, 5:15,22.2,54,20.8,17.7
 2003/04/03, 5:30,22.2,53,20.8,17.7
 2003/04/03, 5:45,22.1,53,20.7,18.1
 2003/04/03, 6:00,22.1,53,20.6,18.1
 2003/04/03, 6:15,22,53,20.6,18.1
 2003/04/03, 6:30,22.1,52,20.5,18.2
 2003/04/03, 6:45,22.8,51,20.6,18.2
 2003/04/03, 7:00,23.2,51,21,15.6
 2003/04/03, 7:15,23.8,49,21.2,15.8
 2003/04/03, 7:30,23.6,49,21.2,15.8
 2003/04/03, 7:45,24.3,47,21.4,15.9
 2003/04/03, 8:00,23.8,47,21.4,15.3
 2003/04/03, 8:15,23.5,47,21.2,15.5
 2003/04/03, 8:30,23.2,47,21.1,15.5
 2003/04/03, 8:45,23.1,47,21,15.6
 2003/04/03, 9:00,23,47,20.9,15.8
 2003/04/03, 9:15,22.9,47,20.8,13.6
 2003/04/03, 9:30,22.8,47,20.8,13.7
 2003/04/03, 9:45,22.7,46,20.7,13.9
 2003/04/03,10:00,22.7,47,20.7,14
 2003/04/03,10:15,22.6,47,20.7,14.1
 2003/04/03,10:30,22.6,47,20.7,14.2
 2003/04/03,10:45,22.4,44,20.5,14.3
 2003/04/03,11:00,22.2,43,20.4,14.4
 2003/04/03,11:15,22.2,42,20.3,14.5
 2003/04/03,11:30,22.1,42,20.2,14.6
 2003/04/03,11:45,22.4,41,19.8,14.8
 2003/04/03,12:00,22.7,42,20.2,14.9
 2003/04/03,12:15,22.5,42,20.1,14.9
 2003/04/03,12:30,22.5,43,19.9,15
 2003/04/03,12:45,22.5,41,20.1,15.1
 2003/04/03,13:00,22.4,41,19.9,15.2
 2003/04/03,13:15,22.4,41,20.1,15.3
 2003/04/03,13:30,22.4,41,20.1,14.7
 2003/04/03,13:45,23.2,41,20.3,13.2
 2003/04/03,14:00,23.8,40,20.7,13.9
 2003/04/03,14:15,23.9,40,20.7,13.4
 2003/04/03,14:30,24.1,39,20.9,13.6
 2003/04/03,14:45,24.3,39,20.9,13.7
 2003/04/03,15:00,23.8,39,20.9,14.2
 2003/04/03,15:15,23.6,39,21,14.3
 2003/04/03,15:30,23.5,38,21,14.4
 2003/04/03,15:45,23.3,39,20.7,14.5
 2003/04/03,16:00,23.2,39,20.7,14.6
 2003/04/03,16:15,23.1,39,20.8,14.7
 2003/04/03,16:30,23,39,20.8,14.8
 2003/04/03,16:45,23,40,20.9,14.9
 2003/04/03,17:00,22.9,41,20.9,15
 2003/04/03,17:15,22.7,41,20.9,15.2
 2003/04/03,17:30,23.4,43,21.3,16.4
 2003/04/03,17:45,23.7,43,21.4,16.5
 2003/04/03,18:00,23.7,44,21.6,16.6
 2003/04/03,18:15,23.8,45,21.7,14.3
 2003/04/03,18:30,23.9,45,21.8,12.7
 2003/04/03,18:45,23.6,42,21.7,12.8
 2003/04/03,19:00,23.2,42,21.4,13
 2003/04/03,19:15,23,43,21.1,13.1
 2003/04/03,19:30,22.8,42,21,13.9
 2003/04/03,19:45,23.7,42,21.2,14.1
 2003/04/03,20:00,24.3,42,21.4,14.2
 2003/04/03,20:15,24.7,42,21.6,14.2
 2003/04/03,20:30,24.9,41,21.7,13
 2003/04/03,20:45,24.9,41,21.9,13.2
 2003/04/03,21:00,25.3,41,22,13.3
 2003/04/03,21:15,25.4,40,22.1,13.5
 2003/04/03,21:30,25,42,22,13.6
 2003/04/03,21:45,24.4,44,21.8,14.8
 2003/04/03,22:00,24,45,21.6,13.1
 2003/04/03,22:15,23.8,46,21.5,13.2
 2003/04/03,22:30,23.6,46,21.5,13.4
 2003/04/03,22:45,24.5,46,21.7,13.5
 2003/04/03,23:00,24.8,46,22,13.6
 2003/04/03,23:15,25,47,22.1,13.8
 2003/04/03,23:30,25,47,22.2,13.9
 2003/04/03,23:45,24.7,47,22.3,15
 2003/04/04, 0:00,24.1,46,22,15.1
 2003/04/04, 0:15,23.7,47,21.9,15.2
 2003/04/04, 0:30,23.4,47,21.8,15.3
 2003/04/04, 0:45,23.1,48,21.7,15.4
 2003/04/04, 1:00,23,48,21.6,15.5
 2003/04/04, 1:15,22.9,48,21.5,15.7
 2003/04/04, 1:30,22.7,49,21.4,15.8
 2003/04/04, 1:45,22.6,49,21.3,15.9
 2003/04/04, 2:00,22.5,49,21.2,16
 2003/04/04, 2:15,22.4,48,21.1,16.1
 2003/04/04, 2:30,22.3,48,21.1,16.2
 2003/04/04, 2:45,22.3,48,21,16.3
 2003/04/04, 3:00,22.1,48,21,16.4
 2003/04/04, 3:15,22.1,48,20.9,16.6
 2003/04/04, 3:30,22,48,20.8,16.6
 2003/04/04, 3:45,21.9,48,20.8,16.7
 2003/04/04, 4:00,21.9,48,20.7,16.8
 2003/04/04, 4:15,21.8,48,20.7,16.9
 2003/04/04, 4:30,21.8,48,20.6,17.9
 2003/04/04, 4:45,21.8,48,20.6,18
 2003/04/04, 5:00,21.7,48,20.6,18
 2003/04/04, 5:15,21.7,48,20.5,18.1
 2003/04/04, 5:30,21.7,48,20.5,18.1
 2003/04/04, 5:45,23,48,20.8,18.2
 2003/04/04, 6:00,23.8,49,21.1,18.2
 2003/04/04, 6:15,24.1,50,21.5,18.3
 2003/04/04, 6:30,24.3,49,21.7,18.7
 2003/04/04, 6:45,24.3,49,22,18.7
 2003/04/04, 7:00,24.5,48,22.1,16.6
 2003/04/04, 7:15,24.5,49,22.4,16.5
 2003/04/04, 7:30,24.6,49,22.3,16.6
 2003/04/04, 7:45,24.6,49,22.3,14.4
 2003/04/04, 8:00,24.4,49,22.5,13
 2003/04/04, 8:15,24.4,48,22.5,13.1
 2003/04/04, 8:30,24.4,48,22.5,13.3
 2003/04/04, 8:45,24.4,48,22.5,13.4
 2003/04/04, 9:00,24.4,48,22.5,13.6
 2003/04/04, 9:15,24.1,47,22.3,14.7
 2003/04/04, 9:30,23.9,47,22.2,14.9
 2003/04/04, 9:45,23.8,47,22.1,15
 2003/04/04,10:00,23.6,47,22.1,15.1
 2003/04/04,10:15,23.5,47,22,15.2
 2003/04/04,10:30,23.5,47,22,15.4
 2003/04/04,10:45,23.5,47,21.9,15.5
 2003/04/04,11:00,23.4,47,21.9,15.6
 2003/04/04,11:15,23.3,47,21.8,17
 2003/04/04,11:30,23.3,47,21.8,17.1
 2003/04/04,11:45,24.2,47,22.1,14.6
 2003/04/04,12:00,24.5,47,22.3,14.7
 2003/04/04,12:15,24.7,47,22.4,14.8
 2003/04/04,12:30,24.7,46,22.5,14.9
 2003/04/04,12:45,24.3,48,22.6,15.1
 2003/04/04,13:00,24.1,48,22.6,16.1
 2003/04/04,13:15,24,48,22.3,16.2
 2003/04/04,13:30,23.8,48,22.1,16.3
 2003/04/04,13:45,23.7,48,22,16.4
 2003/04/04,14:00,24,48,22,16.6
 2003/04/04,14:15,24.5,47,22.2,14.3
 2003/04/04,14:30,24,47,22,13.3
 2003/04/04,14:45,23.7,47,21.9,13.4
 2003/04/04,15:00,23.6,47,21.8,13.6
 2003/04/04,15:15,23.4,47,21.7,13.7
 2003/04/04,15:30,23.3,47,21.5,14.8
 2003/04/04,15:45,23.1,47,21.4,15
 2003/04/04,16:00,23,47,21.3,15.1
 2003/04/04,16:15,22.8,48,21.4,15.2
 2003/04/04,16:30,22.7,48,21.5,15.3
 2003/04/04,16:45,22.6,48,21.6,15.4
 2003/04/04,17:00,22.5,48,21.6,15.6
 2003/04/04,17:15,22.4,48,21.6,15.7
 2003/04/04,17:30,22.4,48,21.5,15.8
 2003/04/04,17:45,22.2,48,21,15.9
 2003/04/04,18:00,23,47,21.3,16
 2003/04/04,18:15,23.7,48,21.4,16.1
 2003/04/04,18:30,24.1,48,21.6,16.2
 2003/04/04,18:45,24.2,47,21.7,16.3
 2003/04/04,19:00,24.5,47,21.9,16.4
 2003/04/04,19:15,24.3,47,22,16.5
 2003/04/04,19:30,24.3,47,22.1,16.6
 2003/04/04,19:45,24.3,47,22.1,16.7
 2003/04/04,20:00,24.1,46,21.9,16.8
 2003/04/04,20:15,24.1,46,21.7,16.9
 2003/04/04,20:30,24.9,44,21.8,17
 2003/04/04,20:45,25.3,44,22,14.5
 2003/04/04,21:00,25.6,44,22.2,14.7
 2003/04/04,21:15,25.8,44,22.3,14.8
 2003/04/04,21:30,25.5,44,22.4,14.9
 2003/04/04,21:45,25.1,45,22.3,15.1
 2003/04/04,22:00,24.8,45,22.2,14.7
 2003/04/04,22:15,24.5,45,22,14.8
 2003/04/04,22:30,24.7,46,22.2,14.9
 2003/04/04,22:45,24.8,46,22.3,15.1
 2003/04/04,23:00,24.8,46,22.3,15.2
 2003/04/04,23:15,24.9,45,22.5,15.3
 2003/04/04,23:30,25.3,45,22.5,15.5
 2003/04/04,23:45,25.3,45,22.5,15.6
 2003/04/05, 0:00,25.4,45,22.6,15.7
 2003/04/05, 0:15,25.2,46,22.6,15.9
 2003/04/05, 0:30,25.2,46,22.6,16
 2003/04/05, 0:45,24.8,46,22.5,16.1
 2003/04/05, 1:00,24.4,46,22.2,16.2
 2003/04/05, 1:15,24,46,22,16.3
 2003/04/05, 1:30,23.7,46,21.8,16.4
 2003/04/05, 1:45,23.5,46,21.6,16.5
 2003/04/05, 2:00,23.3,47,21.4,16.6
 2003/04/05, 2:15,23.2,46,21.3,16.7
 2003/04/05, 2:30,23,47,21.1,16.8
 2003/04/05, 2:45,22.9,47,21,16.9
 2003/04/05, 3:00,22.7,47,20.9,17
 2003/04/05, 3:15,22.6,47,20.7,17.1
 2003/04/05, 3:30,22.5,47,20.6,17.7
 2003/04/05, 3:45,22.4,47,20.5,17.6
 2003/04/05, 4:00,22.3,47,20.4,17.7
 2003/04/05, 4:15,22.2,47,20.3,17.7
 2003/04/05, 4:30,22.1,47,20.2,17.8
 2003/04/05, 4:45,22.1,47,20.1,17.8
 2003/04/05, 5:00,22,47,20,17.9
 2003/04/05, 5:15,21.9,47,19.9,17.9
 2003/04/05, 5:30,21.8,47,19.8,18
 2003/04/05, 5:45,21.7,47,19.8,18.1
 2003/04/05, 6:00,22.8,46,19.9,17.4
 2003/04/05, 6:15,22.4,47,20.1,14
 2003/04/05, 6:30,23.3,48,20.4,14.1
 2003/04/05, 6:45,23.5,47,20.6,14.3
 2003/04/05, 7:00,24,44,20.6,14.8
 2003/04/05, 7:15,23.8,45,20.7,14.9
 2003/04/05, 7:30,24.5,44,20.9,14.9
 2003/04/05, 7:45,24.9,44,21,15
 2003/04/05, 8:00,25.2,44,21.2,13.3
 2003/04/05, 8:15,25.3,44,21.6,13.4
 2003/04/05, 8:30,24.5,44,21.5,12
 2003/04/05, 8:45,24,45,21.3,12.2
 2003/04/05, 9:00,23.7,45,21.2,12.3
 2003/04/05, 9:15,23.4,45,21,12.5
 2003/04/05, 9:30,23.1,46,20.9,12.7
 2003/04/05, 9:45,22.9,46,20.7,12.8
 2003/04/05,10:00,22.8,46,20.6,13
 2003/04/05,10:15,22.6,46,20.5,13.1
 2003/04/05,10:30,22.5,46,20.4,13.3
 2003/04/05,10:45,22.4,46,20.3,13.4
 2003/04/05,11:00,22.3,46,20.2,13.6
 2003/04/05,11:15,22.2,46,20.1,13.7
 2003/04/05,11:30,22.1,47,20.1,13.8
 2003/04/05,11:45,22,46,20,14
 2003/04/05,12:00,21.9,47,19.9,14.1
 2003/04/05,12:15,21.9,47,19.9,14.2
 2003/04/05,12:30,21.8,47,19.8,14.3
 2003/04/05,12:45,21.7,47,19.8,14.5
 2003/04/05,13:00,21.7,47,19.7,14.6
 2003/04/05,13:15,21.6,47,19.6,14.7
 2003/04/05,13:30,21.5,46,19.6,14.8
 2003/04/05,13:45,21.5,47,19.5,14.9
 2003/04/05,14:00,23.3,45,20,15.2
 2003/04/05,14:15,23.5,46,20.2,14.7
 2003/04/05,14:30,23.7,44,20.4,14.8
 2003/04/05,14:45,24.2,44,20.7,12.4
 2003/04/05,15:00,24.5,44,20.9,12.6
 2003/04/05,15:15,24.9,45,21.1,12.7
 2003/04/05,15:30,24.7,44,21.3,13.8
 2003/04/05,15:45,24.3,44,21.1,13.5
 2003/04/05,16:00,23.7,44,21,13.6
 2003/04/05,16:15,23.3,44,20.8,13.7
 2003/04/05,16:30,23,44,20.6,13.9
 2003/04/05,16:45,22.8,44,20.4,14
 2003/04/05,17:00,22.5,44,20.3,14.1
 2003/04/05,17:15,22.4,44,20.2,14.2
 2003/04/05,17:30,22.2,44,20.1,14.3
 2003/04/05,17:45,22,45,20,14.4
 2003/04/05,18:00,21.9,45,19.9,14.5
 2003/04/05,18:15,21.9,45,19.8,14.6
 2003/04/05,18:30,21.7,45,19.7,14.7
 2003/04/05,18:45,22.5,43,19.9,15.2
 2003/04/05,19:00,22.2,44,19.9,15.3
 2003/04/05,19:15,22.1,45,19.8,12.5
 2003/04/05,19:30,22,45,19.7,12.6
 2003/04/05,19:45,21.9,46,19.6,12.8
 2003/04/05,20:00,21.8,46,19.4,12.9
 2003/04/05,20:15,22.4,45,19.4,13.7
 2003/04/05,20:30,23.5,43,20,13.8
 2003/04/05,20:45,23.5,43,20.2,14
 2003/04/05,21:00,23.4,43,20.4,14.1
 2003/04/05,21:15,23.3,44,20.5,13.7
 2003/04/05,21:30,23.3,44,20.6,13.8
 2003/04/05,21:45,23.4,44,20.7,12.7
 2003/04/05,22:00,23.4,45,20.8,12.8
 2003/04/05,22:15,23.5,44,21,13
 2003/04/05,22:30,23.6,44,21,13.2
 2003/04/05,22:45,23.7,44,21.1,13.5
 2003/04/05,23:00,23.6,43,21.1,13.6
 2003/04/05,23:15,23.6,43,21.2,13.8
 2003/04/05,23:30,23.6,42,21.2,13.3
 2003/04/05,23:45,23.4,43,21,12.6
 2003/04/06, 0:00,23.5,43,21.1,12.8
 2003/04/06, 0:15,23.6,43,21.1,12.9
 2003/04/06, 0:30,23.6,44,21.1,13.1
 2003/04/06, 0:45,23.7,44,21.2,13.2
 2003/04/06, 1:00,23.7,44,21.3,13.4
 2003/04/06, 1:15,23.7,44,21.3,13.5
 2003/04/06, 1:30,23.8,45,21.3,13.7
 2003/04/06, 1:45,23.8,45,21.4,13.8
 2003/04/06, 2:00,23.9,45,21.4,13.9
 2003/04/06, 2:15,23.9,45,21.5,14.1
 2003/04/06, 2:30,23.9,45,21.5,14.2
 2003/04/06, 2:45,23.9,45,21.5,14.3
 2003/04/06, 3:00,24,44,21.5,14.4
 2003/04/06, 3:15,24,44,21.5,14.6
 2003/04/06, 3:30,24,44,21.6,14.7
 2003/04/06, 3:45,24,44,21.6,14.8
 2003/04/06, 4:00,24,44,21.6,14.9
 2003/04/06, 4:15,24,44,21.6,15.1
 2003/04/06, 4:30,24.1,44,21.6,15.2
 2003/04/06, 4:45,23.7,44,21.5,15.3
 2003/04/06, 5:00,23.4,44,21.3,15.4
 2003/04/06, 5:15,23.2,45,21.2,15.6
 2003/04/06, 5:30,23,45,21.1,16.5
 2003/04/06, 5:45,22.8,45,21,16.5
 2003/04/06, 6:00,22.7,45,20.9,16.6
 2003/04/06, 6:15,22.6,45,20.8,14.2
 2003/04/06, 6:30,22.8,46,20.8,14.3
 2003/04/06, 6:45,23.1,47,20.9,14.4
 2003/04/06, 7:00,23.1,47,21,14.6
 2003/04/06, 7:15,23.3,47,21.1,14.7
 2003/04/06, 7:30,23.4,48,21.2,14.8
 2003/04/06, 7:45,24.4,46,21.3,14.9
 2003/04/06, 8:00,24.9,47,21.4,15.4
 2003/04/06, 8:15,24.2,41,21.2,14.9
 2003/04/06, 8:30,24.1,42,21.2,15.1
 2003/04/06, 8:45,23.6,41,21.1,15.2
 2003/04/06, 9:00,23.7,36,21,15.3
 2003/04/06, 9:15,23.7,40,21.1,15.1
 2003/04/06, 9:30,23.5,38,20.9,12.3
 2003/04/06, 9:45,23.6,41,20.9,12.9
 2003/04/06,10:00,23.5,42,21,13
 2003/04/06,10:15,23.5,42,21,13.2
 2003/04/06,10:30,23.5,42,21,13.3
 2003/04/06,10:45,23.6,41,21,14.1
 2003/04/06,11:00,23.6,41,21,12.9
 2003/04/06,11:15,23.6,41,21,13
 2003/04/06,11:30,23.7,42,21,13.6
 2003/04/06,11:45,23.9,39,21.1,12.4
 2003/04/06,12:00,23.8,39,21,12.5
 2003/04/06,12:15,23.5,40,20.9,12.6
 2003/04/06,12:30,23.2,39,20.8,13.4
 2003/04/06,12:45,23.1,39,20.7,13.6
 2003/04/06,13:00,22.9,39,20.6,13.7
 2003/04/06,13:15,22.8,39,20.5,13.8
 2003/04/06,13:30,22.7,39,20.4,13.9
 2003/04/06,13:45,22.6,40,20.3,14
 2003/04/06,14:00,22.5,39,20.3,14.1
 2003/04/06,14:15,22.4,39,20.2,14.2
 2003/04/06,14:30,22.4,39,20.2,14.4
 2003/04/06,14:45,22.4,38,20.1,14.5
 2003/04/06,15:00,22.4,38,20.1,14.6
 2003/04/06,15:15,22.3,38,20.1,14.7
 2003/04/06,15:30,22.3,38,20.1,14.8
 2003/04/06,15:45,22.3,38,20,14.9
 2003/04/06,16:00,22.2,38,20,15
 2003/04/06,16:15,22.1,39,20,15.1
 2003/04/06,16:30,22,40,19.9,15.2
 2003/04/06,16:45,21.9,41,19.9,15.3
 2003/04/06,17:00,21.8,41,19.8,15.4
 2003/04/06,17:15,21.7,41,19.8,15.5
 2003/04/06,17:30,21.6,41,19.8,15.6
 2003/04/06,17:45,21.6,42,19.8,15.7
 2003/04/06,18:00,22.7,41,20.3,16.5
 2003/04/06,18:15,23.5,41,20.6,16.6
 2003/04/06,18:30,23.5,40,20.7,13.9
 2003/04/06,18:45,24.3,40,20.7,14
 2003/04/06,19:00,24.3,40,20.9,13
 2003/04/06,19:15,24,41,21,12.2
 2003/04/06,19:30,24,43,21.1,12.3
 2003/04/06,19:45,24.1,44,21.2,12.5
 2003/04/06,20:00,24.3,46,21.3,13.6
 2003/04/06,20:15,24.4,43,21.3,13.9
 2003/04/06,20:30,24.2,43,21.4,14
 2003/04/06,20:45,24.3,42,21.5,14.1
 2003/04/06,21:00,24.2,42,21.5,12.1
 2003/04/06,21:15,24.3,42,21.5,12.4
 2003/04/06,21:30,24.3,42,21.6,12.5
 2003/04/06,21:45,24.3,42,21.7,12.7
 2003/04/06,22:00,24.4,42,21.7,12.8
 2003/04/06,22:15,24.4,42,21.7,13
 2003/04/06,22:30,24.4,42,21.8,13.1
 2003/04/06,22:45,24.4,42,21.8,13.3
 2003/04/06,23:00,24.4,42,21.8,13.5
 2003/04/06,23:15,24.3,42,21.8,14.7
 2003/04/06,23:30,23.9,42,21.8,14.8
 2003/04/06,23:45,23.6,42,21.6,14.9
 2003/04/07, 0:00,23.5,41,21.5,15
 2003/04/07, 0:15,23.3,42,21.3,15.1
 2003/04/07, 0:30,23.1,42,21.2,15.2
 2003/04/07, 0:45,23.9,42,21.2,16.2
 2003/04/07, 1:00,24.1,43,21.5,16.3
 2003/04/07, 1:15,24.2,43,21.7,16.4
 2003/04/07, 1:30,24.3,43,21.8,16.5
 2003/04/07, 1:45,24,43,21.8,16.6
 2003/04/07, 2:00,23.5,43,21.6,16.7
 2003/04/07, 2:15,23.3,43,21.5,16.7
 2003/04/07, 2:30,23,44,21.3,16.8
 2003/04/07, 2:45,22.8,44,21.2,16.9
 2003/04/07, 3:00,22.7,44,21.1,17
 2003/04/07, 3:15,22.5,43,20.9,17.1
 2003/04/07, 3:30,22.4,44,20.8,17.2
 2003/04/07, 3:45,22.3,44,20.7,17.3
 2003/04/07, 4:00,22.1,44,20.6,17.3
 2003/04/07, 4:15,22.1,44,20.5,17.4
 2003/04/07, 4:30,21.9,44,20.4,17.5
 2003/04/07, 4:45,21.8,44,20.3,17.6
 2003/04/07, 5:00,21.8,44,20.3,17.6
 2003/04/07, 5:15,21.7,45,20.1,17.7
 2003/04/07, 5:30,21.6,44,20.1,18.4
 2003/04/07, 5:45,21.5,44,20.2,16.5
 2003/04/07, 6:00,21.6,44,20.2,16.6
 2003/04/07, 6:15,21.6,44,20.2,13.9
 2003/04/07, 6:30,22.5,46,20.2,14
 2003/04/07, 6:45,23,44,20.3,14.1
 2003/04/07, 7:00,23.1,44,20.3,12.3
 2003/04/07, 7:15,23.8,44,20.5,12.5
 2003/04/07, 7:30,24.1,42,20.8,13
 2003/04/07, 7:45,24.3,41,21,12.1
 2003/04/07, 8:00,23.7,41,21,11.3
 2003/04/07, 8:15,23.2,41,20.9,11.5
 2003/04/07, 8:30,24.3,41,21,11.6
 2003/04/07, 8:45,23.6,41,21,11.8
 2003/04/07, 9:00,23.2,41,20.9,13
 2003/04/07, 9:15,23,41,21,13.1
 2003/04/07, 9:30,22.6,41,21,13.3
 2003/04/07, 9:45,22.4,41,20.7,13.4
 2003/04/07,10:00,22.1,40,20.4,13.5
 2003/04/07,10:15,22,41,20.2,13.6
 2003/04/07,10:30,21.8,41,20,13.7
 2003/04/07,10:45,21.7,41,19.9,13.8
 2003/04/07,11:00,21.7,40,19.8,13.9
 2003/04/07,11:15,21.8,38,19.6,14.1
 2003/04/07,11:30,21.7,37,19.6,14.2
 2003/04/07,11:45,21.7,37,19.5,14.6
 2003/04/07,12:00,21.8,36,19.5,14.2
 2003/04/07,12:15,21.9,35,19.5,14.3
 2003/04/07,12:30,21.9,35,19.4,14.4
 2003/04/07,12:45,21.9,34,19.5,14.5
 2003/04/07,13:00,21.9,31,19.5,14.6
 2003/04/07,13:15,22,32,19.6,14.7
 2003/04/07,13:30,21.9,30,19.4,14.8
 2003/04/07,13:45,22,31,19.4,14.9
 2003/04/07,14:00,21.9,31,19.4,14.9
 2003/04/07,14:15,21.9,31,19.4,15.1
 2003/04/07,14:30,22,31,19.5,15.2
 2003/04/07,14:45,22.1,31,19.5,15.3
 2003/04/07,15:00,22.2,31,19.6,15.4
 2003/04/07,15:15,22.1,31,19.6,15.5
 2003/04/07,15:30,22.2,31,19.6,15.5
 2003/04/07,15:45,22.1,32,19.6,15.6
 2003/04/07,16:00,22.2,32,19.6,15.7
 2003/04/07,16:15,22.1,33,19.7,15.8
 2003/04/07,16:30,22.1,34,19.7,15.9
 2003/04/07,16:45,22.1,34,19.7,16
 2003/04/07,17:00,22.1,35,19.8,16.1
 2003/04/07,17:15,22.2,37,20,15.6
 2003/04/07,17:30,22.2,38,20.2,15.7
 2003/04/07,17:45,22.2,38,20.4,15.8
 2003/04/07,18:00,22.1,38,20.6,15.9
 2003/04/07,18:15,22.2,39,20.5,16
 2003/04/07,18:30,23,40,20.5,16.5
 2003/04/07,18:45,22.7,42,20.6,16.6
 2003/04/07,19:00,23.7,42,20.8,16.7
 2003/04/07,19:15,23.9,42,21,16.7
 2003/04/07,19:30,24.1,43,21.2,16.8
 2003/04/07,19:45,24.4,43,21.5,16.9
 2003/04/07,20:00,24.5,44,21.6,16.9